SHIJIAN 6 04A (SJ-6 04A)

Satellite information

Favourite Embed

Satellite Type and Status

PAYLOADIN ORBIT

Key statistics

Satellite SHIJIAN 6 04A (SJ-6 04A) at a glance.

Uptime

5547

Days in orbit

Revolutions

≈ 15.2

Per day

Orbit

SSO

Sun Synchronous Orbit

Inclination

97.8

Latest

Satellite identification and parameters

Extended collection of information and parameters for SHIJIAN 6 04A (SJ-6 04A).

Object identification

Identified? True

Debris? False

Object name: SHIJIAN 6 04A (SJ-6 04A)

International designator: 2010-051A

Object number (NORAD): 37179

Object ID (CCSDS): 37179

Country: PEOPLES REPUBLIC OF CHINA (PRC)

Current information (Y/N): Y

RCS size: LARGE

Orbital parameters

Period: 95.047 minutes

Inclination: 97.8424 deg

SMA: 6899.013 km

Apoapsis: 534.94 km

Periapsis: 506.816 km

RAAN: 358.3157 deg

Eccentricy: 0.00203827

Argument of periapsis: 144.682 deg

Mean anomaly: 215.5766 deg

Mean motion: 15.15033749 rev/day

Mean motion (dot): 0.00017754 rev/day2

B* drag term: 0.00094733868 1/REarth

Two-line elements (TLE)

Creation date: Dec. 12, 2025, 10:14 a.m.

Reference frame: TEME

Reference center: EARTH

Epoch: Dec. 12, 2025, 7:29 a.m. UTC

TLE line 0: 0 SHIJIAN 6 04A (SJ-6 04A)

TLE line 1: 1 37179U 10051A 25346.31242569 .00017754 00000-0 94734-3 0 9990

TLE line 2: 2 37179 97.8424 358.3157 0020383 144.6820 215.5766 15.15033749828622

Live tracking on map

Real-time ground track for satellite SHIJIAN 6 04A (SJ-6 04A).

In-orbit conjunctions

There are no conjunctions computed for SHIJIAN 6 04A (SJ-6 04A), at the moment. Check back to stay up to date, as we update our databases every day.

Go to all conjunctions

Associated space launch

SHIJIAN 6 04A (SJ-6 04A) was lifted into orbit during the mission ‘Long March 4B | Shijian 6G & Shijian 6H’, on board a Long March 4B space rocket.

The launch took place on Oct. 6, 2010, 12:49 a.m. from Launch Complex 7.

For more information about the launch, click the button.

Launch to space Long March 4B | Shijian 6G & Shijian 6H
Long March 4B | Shijian 6G & Shijian 6H

Agency: N/A

Status: Launch Successful

Launch date: Oct. 6, 2010, 12:49 a.m. UTC

Rocket: Long March 4B

Launch pad: Launch Complex 7

Location: Taiyuan Satellite Launch Center, People's Republic of China

...

Latest news about this satellite

There are no fresh news available about this satellite. Check back as we update our databases every day.


Newsletter sign-up

Weekly statistics, charts and insights to help you stay on top of the space industry.